• In Hungary
  • List of Countries
  • For 7 days
  • Water Temperature
  • Satellite Maps
  • Weather Map
  • News
  • Weather Widgets
  • user-avatar
    Login

    Hourly Weather Stanislavove

    Today, 13 December, Wednesday

    Time Temperature Precipitation Wind Pressure Humidity
    00:00 +3°C° 0 mm 2 mps 743 mmHg 78%
    01:00 +3°C° 0 mm 2 mps 743 mmHg 79%
    02:00 +4°C° 0 mm 1 mps 742 mmHg 80%
    03:00 +4°C° 0 mm 1 mps 742 mmHg 80%
    04:00 +4°C° 0 mm 1 mps 742 mmHg 80%
    05:00 +4°C° 0 mm 1 mps 742 mmHg 80%
    06:00 +4°C° 0 mm 1 mps 742 mmHg 80%
    07:00 +3°C° 0 mm 1 mps 742 mmHg 80%
    08:00 +3°C° 0 mm 1 mps 742 mmHg 81%
    09:00 +3°C° 0 mm 0 mps 742 mmHg 81%
    10:00 +4°C° 0 mm 0 mps 742 mmHg 81%
    11:00 +5°C° 0 mm 0 mps 742 mmHg 81%
    12:00 +5°C° 0 mm 0 mps 742 mmHg 82%
    13:00 +7°C° 0 mm 1 mps 742 mmHg 83%
    14:00 +7°C° 0 mm 1 mps 742 mmHg 83%
    15:00 +5°C° 0 mm 2 mps 742 mmHg 86%
    16:00 +4°C° 0 mm 2 mps 742 mmHg 89%
    17:00 +3°C° 0 mm 2 mps 742 mmHg 91%
    18:00 +3°C° 0.1 mm 2 mps 742 mmHg 92%
    19:00 +3°C° 0.1 mm 2 mps 742 mmHg 94%
    20:00 +3°C° 0.1 mm 2 mps 742 mmHg 95%
    21:00 +3°C° 0.1 mm 2 mps 741 mmHg 95%
    22:00 +3°C° 0.1 mm 2 mps 741 mmHg 95%
    23:00 +3°C° 0.1 mm 2 mps 741 mmHg 95%

    Tomorrow, 14 December, Thursday

    Time Temperature Precipitation Wind Pressure Humidity
    00:00 +2°C° 0.6 mm 2 mps 741 mmHg 96%
    01:00 +2°C° 0.6 mm 2 mps 741 mmHg 96%
    02:00 +2°C° 0.6 mm 2 mps 740 mmHg 96%
    03:00 +3°C° 0.3 mm 1 mps 740 mmHg 96%
    04:00 +3°C° 0.3 mm 1 mps 740 mmHg 96%
    05:00 +3°C° 0.3 mm 1 mps 740 mmHg 96%
    06:00 +3°C° 0.1 mm 1 mps 739 mmHg 96%
    07:00 +2°C° 0.1 mm 0 mps 739 mmHg 96%
    08:00 +2°C° 0.1 mm 0 mps 739 mmHg 96%
    09:00 +3°C° 0.1 mm 0 mps 739 mmHg 94%
    10:00 +4°C° 0.1 mm 1 mps 739 mmHg 93%
    11:00 +4°C° 0.1 mm 1 mps 740 mmHg 91%
    12:00 +5°C° 0 mm 1 mps 739 mmHg 89%
    13:00 +5°C° 0 mm 1 mps 739 mmHg 88%
    14:00 +6°C° 0 mm 1 mps 739 mmHg 87%
    15:00 +4°C° 0 mm 2 mps 739 mmHg 88%
    16:00 +4°C° 0 mm 2 mps 739 mmHg 90%
    17:00 +3°C° 0 mm 2 mps 739 mmHg 92%
    18:00 +3°C° 0 mm 2 mps 739 mmHg 92%
    19:00 +4°C° 0 mm 2 mps 739 mmHg 93%
    20:00 +3°C° 0 mm 3 mps 739 mmHg 93%
    21:00 +2°C° 0 mm 3 mps 739 mmHg 93%
    22:00 +2°C° 0 mm 3 mps 739 mmHg 93%
    23:00 +2°C° 0 mm 3 mps 739 mmHg 94%

    Day after tomorrow, 15 December, Friday

    Time Temperature Precipitation Wind Pressure Humidity
    00:00 +3°C° 0 mm 2 mps 739 mmHg 93%
    01:00 +3°C° 0 mm 2 mps 739 mmHg 93%
    02:00 +3°C° 0 mm 2 mps 739 mmHg 92%
    03:00 +3°C° 0 mm 2 mps 739 mmHg 92%
    04:00 +3°C° 0 mm 2 mps 739 mmHg 91%
    05:00 +4°C° 0 mm 1 mps 739 mmHg 90%
    06:00 +3°C° 0 mm 2 mps 739 mmHg 90%
    07:00 +3°C° 0 mm 2 mps 739 mmHg 91%
    08:00 +1°C° 0 mm 3 mps 739 mmHg 91%
    09:00 +2°C° 0 mm 3 mps 739 mmHg 88%
    10:00 +3°C° 0 mm 4 mps 739 mmHg 85%
    11:00 +4°C° 0 mm 4 mps 739 mmHg 82%
    12:00 +5°C° 0 mm 4 mps 739 mmHg 80%
    13:00 +6°C° 0 mm 5 mps 739 mmHg 78%
    14:00 +6°C° 0 mm 5 mps 738 mmHg 75%
    15:00 +6°C° 0 mm 5 mps 738 mmHg 78%
    16:00 +5°C° 0 mm 5 mps 738 mmHg 81%
    17:00 +5°C° 0 mm 5 mps 738 mmHg 84%
    18:00 +5°C° 0 mm 5 mps 738 mmHg 82%
    19:00 +5°C° 0 mm 5 mps 738 mmHg 80%
    20:00 +5°C° 0 mm 6 mps 738 mmHg 78%
    21:00 +5°C° 0 mm 6 mps 738 mmHg 78%
    22:00 +5°C° 0 mm 6 mps 738 mmHg 78%
    23:00 +5°C° 0 mm 5 mps 738 mmHg 78%

    16 December, Saturday

    Time Temperature Precipitation Wind Pressure Humidity
    00:00 +4°C° 0 mm 6 mps 737 mmHg 81%
    01:00 +4°C° 0 mm 6 mps 737 mmHg 84%
    02:00 +4°C° 0 mm 6 mps 737 mmHg 86%
    03:00 +5°C° 0 mm 7 mps 736 mmHg 88%
    04:00 +5°C° 0 mm 7 mps 736 mmHg 90%
    05:00 +6°C° 0 mm 8 mps 735 mmHg 91%
    06:00 +6°C° 0 mm 8 mps 735 mmHg 91%
    07:00 +6°C° 0 mm 8 mps 735 mmHg 90%
    08:00 +6°C° 0 mm 8 mps 735 mmHg 89%
    09:00 +6°C° 0 mm 8 mps 735 mmHg 87%
    10:00 +7°C° 0 mm 8 mps 735 mmHg 85%
    11:00 +7°C° 0 mm 8 mps 735 mmHg 83%
    12:00 +9°C° 0 mm 7 mps 735 mmHg 80%
    13:00 +9°C° 0 mm 7 mps 735 mmHg 77%
    14:00 +10°C° 0 mm 6 mps 735 mmHg 74%
    15:00 +9°C° 0 mm 6 mps 735 mmHg 75%
    16:00 +8°C° 0 mm 5 mps 735 mmHg 76%
    17:00 +8°C° 0 mm 4 mps 735 mmHg 77%
    18:00 +7°C° 0 mm 4 mps 736 mmHg 79%
    19:00 +7°C° 0 mm 4 mps 736 mmHg 81%
    20:00 +8°C° 0 mm 3 mps 736 mmHg 83%
    21:00 +8°C° 0.2 mm 3 mps 737 mmHg 86%
    22:00 +7°C° 0.2 mm 3 mps 737 mmHg 89%
    23:00 +7°C° 0.2 mm 2 mps 738 mmHg 92%

    17 December, Sunday

    Time Temperature Precipitation Wind Pressure Humidity
    00:00 +7°C° 0.3 mm 2 mps 738 mmHg 91%
    01:00 +5°C° 0.3 mm 3 mps 739 mmHg 91%
    02:00 +5°C° 0.3 mm 3 mps 739 mmHg 91%
    03:00 +5°C° 0.1 mm 3 mps 739 mmHg 90%
    04:00 +4°C° 0.1 mm 3 mps 739 mmHg 89%
    05:00 +4°C° 0.1 mm 4 mps 739 mmHg 88%
    06:00 +4°C° 0.2 mm 4 mps 739 mmHg 87%
    07:00 +2°C° 0.2 mm 5 mps 740 mmHg 87%
    08:00 +2°C° 0.2 mm 5 mps 740 mmHg 86%
    09:00 +2°C° 0.9 mm 5 mps 740 mmHg 86%
    10:00 +1°C° 0.9 mm 6 mps 740 mmHg 86%
    11:00 +1°C° 0.9 mm 6 mps 739 mmHg 86%
    12:00 +1°C° 1 mm 6 mps 739 mmHg 87%
    13:00 0°C° 1 mm 7 mps 739 mmHg 87%
    14:00 -1°C° 1 mm 7 mps 738 mmHg 88%
    15:00 -1°C° 1.6 mm 7 mps 738 mmHg 89%
    16:00 -1°C° 1.6 mm 7 mps 738 mmHg 90%
    17:00 -1°C° 1.6 mm 8 mps 738 mmHg 91%
    18:00 -2°C° 1.4 mm 8 mps 738 mmHg 91%
    19:00 -2°C° 1.4 mm 8 mps 738 mmHg 91%
    20:00 -2°C° 1.4 mm 8 mps 738 mmHg 91%
    21:00 -2°C° 0.5 mm 8 mps 738 mmHg 90%
    22:00 -2°C° 0.5 mm 8 mps 738 mmHg 90%
    23:00 -2°C° 0.5 mm 8 mps 738 mmHg 89%

    18 December, Monday

    Time Temperature Precipitation Wind Pressure Humidity
    00:00 -2°C° 0.3 mm 8 mps 739 mmHg 89%
    01:00 -2°C° 0.3 mm 8 mps 740 mmHg 88%
    02:00 -2°C° 0.3 mm 8 mps 740 mmHg 88%
    03:00 -4°C° 0.1 mm 8 mps 741 mmHg 87%
    04:00 -3°C° 0.1 mm 7 mps 742 mmHg 87%
    05:00 -3°C° 0.1 mm 7 mps 743 mmHg 87%
    06:00 -3°C° 0 mm 6 mps 744 mmHg 87%
    07:00 -3°C° 0 mm 6 mps 744 mmHg 86%
    08:00 -4°C° 0 mm 5 mps 745 mmHg 86%
    09:00 -2°C° 0 mm 5 mps 746 mmHg 84%
    10:00 -3°C° 0 mm 6 mps 746 mmHg 83%
    11:00 -3°C° 0 mm 6 mps 747 mmHg 81%
    12:00 -2°C° 0 mm 5 mps 747 mmHg 81%
    13:00 -2°C° 0 mm 5 mps 747 mmHg 81%
    14:00 -2°C° 0 mm 4 mps 747 mmHg 80%
    15:00 -2°C° 0 mm 4 mps 747 mmHg 82%
    16:00 -1°C° 0 mm 3 mps 748 mmHg 83%
    17:00 -1°C° 0 mm 3 mps 748 mmHg 84%
    18:00 -1°C° 0 mm 3 mps 748 mmHg 85%
    19:00 -2°C° 0 mm 2 mps 749 mmHg 86%
    20:00 -2°C° 0 mm 2 mps 749 mmHg 87%
    21:00 -2°C° 0 mm 2 mps 749 mmHg 88%
    22:00 -3°C° 0 mm 2 mps 749 mmHg 88%
    23:00 -3°C° 0 mm 2 mps 750 mmHg 89%
    Show more